Regional Weather Roundup
Issued by NWS

Home | Current Version | Previous Version | Text Only | Print | Product List | Glossary Off
Versions: 1 2 3 4 5 6 7 8 9 10 11 12 13 14 15 16 17 18 19 20 21 22 23 24 25 26 27 28 29 30 31 32 33 34 35 36 37 38 39 40 41 42 43 44 45 46 47 48 49 50

000
ASUS43 KOAX 210410
RWRNE

WEATHER ROUNDUP FOR NEBRASKA
NATIONAL WEATHER SERVICE OMAHA NE
1100 PM CDT SUN APR 20 2014

NOTES: SATELLITE DATA IS BEING USED TO AUGMENT CLOUD COVER ABOVE
       12000 FEET.
       "FAIR" INDICATES FEW OR NO CLOUDS BELOW 12,000 FEET WITH NO
       SIGNIFICANT WEATHER AND/OR OBSTRUCTIONS TO VISIBILITY.

  * THESE STATIONS DO NOT REPORT WEATHER SUCH AS RAIN...SNOW OR FOG.

NEZ001>004-019>022-054>056-210500-
NEBRASKA PANHANDLE

CITY           SKY/WX    TMP DP  RH WIND       PRES   REMARKS
SCOTTSBLUFF    CLEAR     56  33  42 NE17      30.06R
ALLIANCE       CLEAR     49  36  61 N9        30.06R
CHADRON        CLEAR     53  31  42 NE5       30.09R
KIMBALL        CLEAR     53  29  39 N9        30.07R
SIDNEY         PTCLDY    56  31  38 NE8       30.06R
$$

NEZ057>060-069>072-079>082-210500-
SOUTHWEST NEBRASKA

CITY           SKY/WX    TMP DP  RH WIND       PRES   REMARKS
NORTH PLATTE   PTCLDY    55  48  77 SE5       29.95R
IMPERIAL       CLEAR     56  45  66 W7        29.97R
LEXINGTON      CLOUDY    60  53  77 S7        29.96R
MCCOOK         CLOUDY    60  53  77 S6        29.97R
OGALLALA       CLEAR     55  42  63 N12       30.00R
$$

NEZ005>010-023>029-035>040-094-210500-
NORTH CENTRAL NEBRASKA

CITY           SKY/WX    TMP DP  RH WIND       PRES   REMARKS
VALENTINE      PTCLDY    62  37  39 N23G31    29.96R
AINSWORTH      PTCLDY    61  49  65 NW7       29.98R
BROKEN BOW     PTCLDY    60  50  69 S8        29.94R
O`NEILL        MOCLDY    67  47  48 W7        29.95R
ORD            MOCLDY    60  51  72 S8        29.92R
THEDFORD       PTCLDY    67  39  36 N13G20    29.98R
$$

NEZ041-046>049-061>064-073>077-083>087-210500-
SOUTH CENTRAL NEBRASKA

CITY           SKY/WX    TMP DP  RH WIND       PRES   REMARKS
GRAND ISLAND   CLOUDY    64  54  69 S12       29.94R
AURORA         CLOUDY    64  54  70 SE10      29.95S
HASTINGS       CLOUDY    64  52  64 S6        29.95R
HEBRON         CLOUDY    63  55  73 S12       29.97S
HOLDREGE       CLOUDY    60  52  74 SW7       29.97R
KEARNEY *      CLOUDY    61  54  77 S10       29.96R
YORK           CLOUDY    63  55  77 S7        29.96S
$$

NEZ011>018-030>034-042>045-210500-
NORTHEAST NEBRASKA

CITY           SKY/WX    TMP DP  RH WIND       PRES   REMARKS
NORFOLK        CLOUDY    64  54  69 S14       29.92S
ALBION         CLOUDY    61  52  71 SE6       29.94R
BLAIR          DRIZZLE   63  56  79 S14       29.96S
COLUMBUS *     CLOUDY    54  54 100 S10G17    29.95S
FREMONT        CLOUDY    62  57  84 SE6       29.96S
TEKAMAH        CLOUDY    66  54  65 SE16      29.94R
$$

NEZ050>053-065>068-078-088>093-210500-
SOUTHEAST NEBRASKA

CITY           SKY/WX    TMP DP  RH WIND       PRES   REMARKS
LINCOLN        MOCLDY    61  56  83 SE5       29.97S
OMAHA EPPLEY   LGT RAIN  62  58  86 SE10      29.97R
BEATRICE       MOCLDY    64  53  67 S7        29.98R
FALLS CITY     LGT RAIN  65  59  81 S14       29.98
NEBRASKA CITY  CLOUDY    62  58  84 SW9       29.98F
PLATTSMOUTH    CLOUDY    61  57  85 SE7       29.98S
$$

NEZ044-045-051>053-067-210500-
OMAHA AREA

CITY           SKY/WX    TMP DP  RH WIND       PRES   REMARKS
OMAHA EPPLEY   LGT RAIN  62  58  86 SE10      29.97R
BLAIR          DRIZZLE   63  56  79 S14       29.96S
FREMONT        CLOUDY    62  57  84 SE6       29.96S
MILLARD        CLOUDY    61  57  88 SE5       29.96F
OFFUTT AFB     CLOUDY    62  62  99 SE6       29.97F
PLATTSMOUTH    CLOUDY    61  57  85 SE7       29.98S
WAHOO          MOCLDY    64  55  74 S8        29.95S
$$



USA.gov is the U.S. government's official web portal to all federal, state and local government web resources and services.